Weather History for KCVN - October, 2012

Change the Weather History Date:

Wednesday, October 17, 2012

  Actual Average Record
Temperature  
Mean Temperature 60 °F -  
Max Temperature 75 °F 70 °F 90 °F (1943)
Min Temperature 44 °F 42 °F 28 °F (1948)
Degree Days  
Heating Degree Days 4    
Growing Degree Days 10 (Base 50)    
Moisture  
Dew Point 29 °F    
Average Humidity 29    
Maximum Humidity 53    
Minimum Humidity 21    
Precipitation  
Precipitation 0.00 in - - ()
Sea Level Pressure  
Sea Level Pressure 29.85 in    
Wind  
Wind Speed 14 mph (NE)    
Max Wind Speed 23 mph    
Max Gust Speed 31 mph    
Visibility 10 miles    
Events      
Averages and records for this station are not official NWS values.
T = Trace of Precipitation, MM = Missing Value Source: NWS Daily Summary

Daily Weather History Graph

Daily Weather History Graph

Search for Another Location

Airport or City:

Trip Planner

Search our weather history database for the weather conditions in past years. The results will help you decide how hot, cold, wet, or windy it might be!

Date:

Astronomy

Oct. 17, 2012 Rise Set
Actual Time 6:59 AM MDT 6:14 PM MDT
Civil Twilight 6:34 AM MDT 6:40 PM MDT
Nautical Twilight 6:05 AM MDT 7:09 PM MDT
Astronomical Twilight 5:36 AM MDT 7:38 PM MDT
Moon 9:29 AM MDT (10/17) 8:00 PM MDT (10/17)
Length of Visible Light 12h 05m
Length of Day
11h 14m
Waxing Crescent, 7% of the Moon is Illuminated
Oct 17
Waxing Crescent
Oct 21
First Quarter
Oct 29
Full
Nov 6
Last Quarter
Nov 13
New

Hourly Weather History & Observations

Time (MDT) Temp. Windchill Dew Point Humidity Pressure Visibility Wind Dir Wind Speed Gust Speed Precip Events Conditions
12:15 AM 66.2 °F - 24.8 °F 21% 29.73 in 10.0 mi West 23.0 mph 26.5 mph N/A   Clear
12:35 AM 66.2 °F - 24.8 °F 21% 29.72 in 10.0 mi West 19.6 mph 29.9 mph N/A   Clear
12:55 AM 66.2 °F - 24.8 °F 21% 29.73 in 10.0 mi West 23.0 mph 31.1 mph N/A   Clear
1:15 AM 66.2 °F - 24.8 °F 21% 29.73 in 10.0 mi West 23.0 mph - N/A   Clear
1:35 AM 64.4 °F - 24.8 °F 22% 29.73 in 10.0 mi West 20.7 mph 27.6 mph N/A   Clear
1:55 AM 64.4 °F - 24.8 °F 22% 29.74 in 10.0 mi West 17.3 mph - N/A   Clear
2:15 AM 64.4 °F - 26.6 °F 24% 29.74 in 10.0 mi West 16.1 mph - N/A   Clear
2:35 AM 64.4 °F - 24.8 °F 22% 29.74 in 10.0 mi West 16.1 mph - N/A   Clear
2:55 AM 64.4 °F - 24.8 °F 22% 29.73 in 10.0 mi WSW 17.3 mph 24.2 mph N/A   Clear
3:15 AM 64.4 °F - 24.8 °F 22% 29.73 in 10.0 mi West 18.4 mph - N/A   Clear
3:35 AM 64.4 °F - 24.8 °F 22% 29.73 in 10.0 mi West 15.0 mph - N/A   Clear
3:55 AM 60.8 °F - 24.8 °F 25% 29.73 in 10.0 mi WSW 12.7 mph - N/A   Clear
4:15 AM 60.8 °F - 26.6 °F 27% 29.74 in 10.0 mi West 9.2 mph - N/A   Clear
4:35 AM 59.0 °F - 24.8 °F 27% 29.74 in 10.0 mi West 12.7 mph - N/A   Clear
4:55 AM 59.0 °F - 24.8 °F 27% 29.74 in 10.0 mi West 13.8 mph - N/A   Clear
5:15 AM 59.0 °F - 24.8 °F 27% 29.74 in 10.0 mi West 15.0 mph - N/A   Clear
5:35 AM 59.0 °F - 24.8 °F 27% 29.74 in 10.0 mi West 13.8 mph - N/A   Clear
5:55 AM 57.2 °F - 24.8 °F 29% 29.75 in 10.0 mi West 11.5 mph - N/A   Clear
6:15 AM 57.2 °F - 24.8 °F 29% 29.75 in 10.0 mi West 15.0 mph - N/A   Clear
6:35 AM 57.2 °F - 24.8 °F 29% 29.76 in 10.0 mi WNW 9.2 mph - N/A   Clear
6:55 AM 57.2 °F - 24.8 °F 29% 29.77 in 10.0 mi West 12.7 mph - N/A   Clear
7:15 AM 57.2 °F - 24.8 °F 29% 29.78 in 10.0 mi West 11.5 mph - N/A   Clear
7:35 AM 57.2 °F - 24.8 °F 29% 29.83 in 10.0 mi NNE 8.1 mph - N/A   Clear
7:55 AM 57.2 °F - 26.6 °F 31% 29.84 in 10.0 mi Calm Calm - N/A   Clear
8:15 AM 60.8 °F - 26.6 °F 27% 29.85 in 10.0 mi NNE 5.8 mph - N/A   Clear
8:35 AM 62.6 °F - 30.2 °F 30% 29.87 in 10.0 mi ENE 10.4 mph - N/A   Clear
8:55 AM 64.4 °F - 32.0 °F 30% 29.87 in 10.0 mi ENE 6.9 mph - N/A   Clear
9:15 AM 64.4 °F - 33.8 °F 32% 29.88 in 10.0 mi ENE 10.4 mph - N/A   Clear
9:35 AM 66.2 °F - 33.8 °F 30% 29.89 in 10.0 mi NE 10.4 mph - N/A   Clear
9:55 AM 66.2 °F - 32.0 °F 28% 29.89 in 10.0 mi NE 8.1 mph - N/A   Clear
10:15 AM 68.0 °F - 30.2 °F 24% 29.89 in 10.0 mi East 9.2 mph - N/A   Clear
10:35 AM 69.8 °F - 30.2 °F 23% 29.89 in 10.0 mi ENE 8.1 mph - N/A   Clear
10:55 AM 69.8 °F - 32.0 °F 25% 29.89 in 10.0 mi NE 12.7 mph - N/A   Clear
11:15 AM 71.6 °F - 32.0 °F 23% 29.89 in 10.0 mi East 3.5 mph - N/A   Clear
11:35 AM 71.6 °F - 32.0 °F 23% 29.88 in 10.0 mi SE 5.8 mph - N/A   Clear
11:55 AM 71.6 °F - 30.2 °F 22% 29.89 in 10.0 mi ENE 3.5 mph - N/A   Clear
12:15 PM 73.4 °F - 32.0 °F 22% 29.88 in 10.0 mi SE 4.6 mph - N/A   Clear
12:35 PM 73.4 °F - 32.0 °F 22% 29.88 in 10.0 mi ENE 9.2 mph - N/A   Clear
12:55 PM 75.2 °F - 32.0 °F 21% 29.87 in 10.0 mi ENE 6.9 mph - N/A   Clear
1:15 PM 75.2 °F - 33.8 °F 22% 29.87 in 10.0 mi East 10.4 mph 17.3 mph N/A   Clear
1:35 PM 75.2 °F - 33.8 °F 22% 29.87 in 10.0 mi ENE 11.5 mph 23.0 mph N/A   Clear
1:55 PM 75.2 °F - 33.8 °F 22% 29.86 in 10.0 mi ENE 11.5 mph 19.6 mph N/A   Clear
2:15 PM 75.2 °F - 33.8 °F 22% 29.86 in 10.0 mi East 15.0 mph 20.7 mph N/A   Clear
2:35 PM 75.2 °F - 33.8 °F 22% 29.85 in 10.0 mi East 16.1 mph - N/A   Clear
2:55 PM 75.2 °F - 33.8 °F 22% 29.85 in 10.0 mi East 13.8 mph 24.2 mph N/A   Clear
3:15 PM 75.2 °F - 33.8 °F 22% 29.84 in 10.0 mi East 16.1 mph 24.2 mph N/A   Clear
3:35 PM 75.2 °F - 33.8 °F 22% 29.84 in 10.0 mi East 16.1 mph 24.2 mph N/A   Clear
3:55 PM 75.2 °F - 33.8 °F 22% 29.84 in 10.0 mi ENE 19.6 mph 24.2 mph N/A   Clear
4:15 PM 73.4 °F - 33.8 °F 23% 29.84 in 10.0 mi ENE 20.7 mph 26.5 mph N/A   Clear
4:35 PM 73.4 °F - 32.0 °F 22% 29.84 in 10.0 mi ENE 19.6 mph - N/A   Clear
4:55 PM 71.6 °F - 32.0 °F 23% 29.85 in 10.0 mi ENE 15.0 mph - N/A   Clear
5:15 PM 71.6 °F - 32.0 °F 23% 29.85 in 10.0 mi East 18.4 mph - N/A   Clear
5:35 PM 68.0 °F - 32.0 °F 26% 29.86 in 10.0 mi East 15.0 mph 23.0 mph N/A   Clear
5:55 PM 66.2 °F - 32.0 °F 28% 29.87 in 10.0 mi ENE 15.0 mph - N/A   Clear
6:15 PM 64.4 °F - 30.2 °F 28% 29.87 in 10.0 mi East 12.7 mph - N/A   Clear
6:35 PM 62.6 °F - 30.2 °F 30% 29.89 in 10.0 mi ENE 9.2 mph - N/A   Clear
6:55 PM 60.8 °F - 32.0 °F 34% 29.90 in 10.0 mi NE 6.9 mph - N/A   Clear
7:15 PM 59.0 °F - 30.2 °F 34% 29.91 in 10.0 mi NE 9.2 mph - N/A   Clear
7:35 PM 57.2 °F - 30.2 °F 36% 29.91 in 10.0 mi NE 8.1 mph - N/A   Clear
7:55 PM 57.2 °F - 30.2 °F 36% 29.91 in 10.0 mi East 9.2 mph - N/A   Clear
8:15 PM 55.4 °F - 30.2 °F 38% 29.91 in 10.0 mi East 12.7 mph - N/A   Clear
8:35 PM 55.4 °F - 30.2 °F 38% 29.92 in 10.0 mi East 11.5 mph - N/A   Clear
8:55 PM 53.6 °F - 30.2 °F 41% 29.94 in 10.0 mi East 3.5 mph - N/A   Clear
9:15 PM 51.8 °F - 28.4 °F 41% 29.94 in 10.0 mi East 8.1 mph - N/A   Clear
9:35 PM 51.8 °F - 28.4 °F 41% 29.95 in 10.0 mi East 6.9 mph - N/A   Clear
9:55 PM 50.0 °F - 28.4 °F 43% 29.96 in 10.0 mi East 6.9 mph - N/A   Clear
10:15 PM 48.2 °F - 28.4 °F 46% 29.97 in 10.0 mi East 9.2 mph - N/A   Clear
10:35 PM 48.2 °F - 28.4 °F 46% 29.98 in 10.0 mi NNE 8.1 mph - N/A   Clear
10:55 PM 46.4 °F 45.2 °F 28.4 °F 50% 29.98 in 10.0 mi NNW 3.5 mph - N/A   Clear
11:15 PM 46.4 °F 44.3 °F 28.4 °F 50% 29.98 in 10.0 mi NNE 4.6 mph - N/A   Clear
11:35 PM 46.4 °F 43.5 °F 28.4 °F 50% 29.99 in 10.0 mi East 5.8 mph - N/A   Clear
11:55 PM 44.6 °F 41.4 °F 28.4 °F 53% 29.99 in 10.0 mi East 5.8 mph - N/A   Clear